AUA552K LIRF-LOWW

Flight info

Callsign AUA552K
Flight time 1h 9m
Altitude 36000
Route SOVAN DCT AMTEL DCT GAVRA/N0430F370 DCT LAPNA LAPNA2W
Aircraft A320/M-SDE3FGHIRWY/LB1

Departure

Time 2026-05-08 06:57
Airport Rome–Fiumicino Leonardo da Vinci International Airport (LIRF)

Arrival

Time 2026-05-08 08:07
Airport Vienna International Airport (LOWW)
Time Latitude Longitude Altitude Speed Heading
2026-05-08 06:17 41.79893 12.26097 19 ft 0 kts 71°
2026-05-08 06:50 41.79893 12.26096 19 ft 1 kts 71°
2026-05-08 06:50 41.79884 12.26079 19 ft 4 kts 20°
2026-05-08 06:50 41.79866 12.26062 21 ft 4 kts 52°
2026-05-08 06:50 41.79855 12.26032 21 ft 4 kts 92°
2026-05-08 06:51 41.79859 12.26010 20 ft 1 kts 116°
2026-05-08 06:51 41.79860 12.26006 20 ft 0 kts 116°
2026-05-08 06:53 41.79849 12.26038 20 ft 10 kts 116°
2026-05-08 06:54 41.79825 12.26140 19 ft 14 kts 79°
2026-05-08 06:54 41.79915 12.26221 19 ft 19 kts 25°
2026-05-08 06:54 41.80048 12.26302 18 ft 22 kts 25°
2026-05-08 06:54 41.80198 12.26396 18 ft 25 kts 22°
2026-05-08 06:55 41.80365 12.26370 14 ft 24 kts
2026-05-08 06:55 41.80458 12.26515 15 ft 21 kts 67°
2026-05-08 06:55 41.80513 12.26705 15 ft 23 kts 70°
2026-05-08 06:55 41.80570 12.26916 15 ft 25 kts 70°
2026-05-08 06:56 41.80644 12.27043 13 ft 18 kts 18°
2026-05-08 06:56 41.80781 12.27046 10 ft 22 kts 348°
2026-05-08 06:56 41.80930 12.26978 11 ft 21 kts 337°
2026-05-08 06:56 41.80942 12.26866 12 ft 14 kts 249°
2026-05-08 06:57 41.80867 12.26592 14 ft 64 kts 250°
2026-05-08 06:57 41.80625 12.25721 -4 ft 134 kts 249°
2026-05-08 06:57 41.80241 12.24337 250 ft 166 kts 250°
2026-05-08 06:57 41.79848 12.22898 1105 ft 163 kts 246°
2026-05-08 06:58 41.79452 12.21480 1936 ft 165 kts 244°
2026-05-08 06:58 41.79225 12.19874 2417 ft 192 kts 270°
2026-05-08 06:58 41.79726 12.18084 2896 ft 220 kts 305°
2026-05-08 06:58 41.80970 12.16723 3463 ft 248 kts 336°
2026-05-08 06:59 41.82695 12.16038 4110 ft 268 kts 345°
2026-05-08 06:59 41.84528 12.15421 5146 ft 273 kts 346°
2026-05-08 06:59 41.86367 12.14816 6429 ft 274 kts 346°
2026-05-08 06:59 41.88234 12.14202 7506 ft 275 kts 347°
2026-05-08 07:00 41.90106 12.13578 8536 ft 279 kts 347°
2026-05-08 07:00 41.91999 12.12941 9562 ft 282 kts 347°
2026-05-08 07:00 41.93920 12.12287 10465 ft 291 kts 347°
2026-05-08 07:00 41.95963 12.11592 10890 ft 315 kts 347°
2026-05-08 07:01 41.98149 12.10848 11516 ft 329 kts 347°
2026-05-08 07:01 42.00356 12.10094 12346 ft 335 kts 347°
2026-05-08 07:01 42.02669 12.09302 13227 ft 341 kts 348°
2026-05-08 07:01 42.04983 12.08510 14055 ft 347 kts 348°
2026-05-08 07:02 42.07342 12.07704 14808 ft 352 kts 347°
2026-05-08 07:02 42.09735 12.06885 15545 ft 358 kts 347°
2026-05-08 07:02 42.12133 12.06061 16277 ft 363 kts 347°
2026-05-08 07:02 42.14599 12.05209 17001 ft 369 kts 346°
2026-05-08 07:03 42.17103 12.04346 17745 ft 374 kts 346°
2026-05-08 07:03 42.19657 12.03525 18370 ft 380 kts 348°
2026-05-08 07:03 42.22268 12.02846 18996 ft 384 kts 350°
2026-05-08 07:03 42.24924 12.02264 19653 ft 389 kts 351°
2026-05-08 07:04 42.27610 12.01722 20306 ft 393 kts 351°
2026-05-08 07:04 42.30324 12.01177 20958 ft 397 kts 351°
2026-05-08 07:04 42.33072 12.00603 21608 ft 401 kts 350°
2026-05-08 07:04 42.35841 11.99999 22264 ft 405 kts 349°
2026-05-08 07:05 42.38635 11.99373 22927 ft 410 kts 349°
2026-05-08 07:05 42.41464 11.98733 23567 ft 414 kts 349°
2026-05-08 07:05 42.44316 11.98083 24115 ft 418 kts 349°
2026-05-08 07:05 42.47193 11.97427 24670 ft 421 kts 349°
2026-05-08 07:06 42.49150 11.96982 25037 ft 423 kts 348°
2026-05-08 07:06 42.52064 11.96317 25572 ft 426 kts 348°
2026-05-08 07:06 42.54959 11.95657 26082 ft 429 kts 348°
2026-05-08 07:06 42.57920 11.94984 26582 ft 432 kts 348°
2026-05-08 07:07 42.60895 11.94308 27065 ft 436 kts 348°
2026-05-08 07:07 42.63900 11.93628 27539 ft 439 kts 348°
2026-05-08 07:07 42.66923 11.92943 28013 ft 442 kts 348°
2026-05-08 07:07 42.69966 11.92255 28484 ft 446 kts 348°
2026-05-08 07:08 42.73032 11.91560 28941 ft 449 kts 348°
2026-05-08 07:08 42.76125 11.90856 29388 ft 452 kts 348°
2026-05-08 07:08 42.79244 11.90143 29818 ft 455 kts 348°
2026-05-08 07:08 42.82345 11.89257 30206 ft 456 kts 341°
2026-05-08 07:09 42.85324 11.87774 30553 ft 456 kts 332°
2026-05-08 07:09 42.88140 11.85783 30901 ft 456 kts 328°
2026-05-08 07:09 42.90937 11.83729 31253 ft 459 kts 328°
2026-05-08 07:09 42.93754 11.81664 31586 ft 461 kts 328°
2026-05-08 07:10 42.96591 11.79589 31947 ft 462 kts 328°
2026-05-08 07:10 42.99414 11.77522 32426 ft 460 kts 328°
2026-05-08 07:10 43.02235 11.75456 32907 ft 459 kts 327°
2026-05-08 07:10 43.05043 11.73400 33389 ft 457 kts 327°
2026-05-08 07:11 43.07841 11.71346 33868 ft 456 kts 327°
2026-05-08 07:11 43.10634 11.69290 34294 ft 455 kts 327°
2026-05-08 07:11 43.13413 11.67240 34696 ft 454 kts 327°
2026-05-08 07:11 43.16203 11.65211 35103 ft 455 kts 330°
2026-05-08 07:12 43.19169 11.63652 35491 ft 460 kts 340°
2026-05-08 07:12 43.22323 11.62821 35857 ft 465 kts 351°
2026-05-08 07:12 43.25568 11.62756 36221 ft 469 kts
2026-05-08 07:12 43.28803 11.63469 36564 ft 472 kts 12°
2026-05-08 07:13 43.31965 11.64679 36891 ft 473 kts 13°
2026-05-08 07:13 43.35134 11.65911 36980 ft 471 kts 13°
2026-05-08 07:13 43.41408 11.68350 36988 ft 468 kts 13°
2026-05-08 07:14 43.47677 11.70782 36992 ft 467 kts 13°
2026-05-08 07:14 43.53939 11.73218 36996 ft 468 kts 13°
2026-05-08 07:15 43.60188 11.75657 36997 ft 467 kts 13°
2026-05-08 07:15 43.66447 11.78104 37008 ft 467 kts 13°
2026-05-08 07:16 43.72698 11.80551 37015 ft 467 kts 13°
2026-05-08 07:16 43.78626 11.84250 37028 ft 471 kts 32°
2026-05-08 07:17 43.83669 11.90068 37027 ft 473 kts 41°
2026-05-08 07:17 43.88538 11.96185 37034 ft 473 kts 41°
2026-05-08 07:18 43.93420 12.02308 37043 ft 473 kts 41°
2026-05-08 07:18 43.98289 12.08434 37048 ft 473 kts 41°
2026-05-08 07:19 44.03158 12.14583 37052 ft 473 kts 41°
2026-05-08 07:19 44.08021 12.20748 37055 ft 473 kts 41°
2026-05-08 07:20 44.12881 12.26919 37083 ft 473 kts 42°
2026-05-08 07:20 44.17747 12.33108 37088 ft 474 kts 42°
2026-05-08 07:21 44.22615 12.39310 37092 ft 474 kts 42°
2026-05-08 07:21 44.27475 12.45529 37089 ft 474 kts 42°
2026-05-08 07:22 44.32332 12.51757 37079 ft 474 kts 42°
2026-05-08 07:22 44.37179 12.57992 37073 ft 474 kts 42°
2026-05-08 07:23 44.42040 12.64255 37069 ft 475 kts 42°
2026-05-08 07:23 44.46894 12.70521 37066 ft 475 kts 42°
2026-05-08 07:24 44.51746 12.76790 37067 ft 475 kts 42°
2026-05-08 07:24 44.56591 12.83064 37068 ft 474 kts 42°
2026-05-08 07:25 44.61433 12.89359 37062 ft 474 kts 42°
2026-05-08 07:26 44.68683 12.98819 37061 ft 474 kts 42°
2026-05-08 07:26 44.73518 13.05137 37058 ft 474 kts 42°
2026-05-08 07:27 44.78313 13.11421 37056 ft 475 kts 42°
2026-05-08 07:27 44.83146 13.17762 37056 ft 475 kts 42°
2026-05-08 07:28 44.88003 13.24156 37057 ft 475 kts 42°
2026-05-08 07:28 44.92799 13.30486 37057 ft 475 kts 42°
2026-05-08 07:29 44.97625 13.36876 37054 ft 476 kts 42°
2026-05-08 07:29 45.02448 13.43285 37061 ft 476 kts 42°
2026-05-08 07:30 45.07268 13.49693 37056 ft 476 kts 42°
2026-05-08 07:30 45.12091 13.56124 37053 ft 476 kts 42°
2026-05-08 07:31 45.16915 13.62565 37061 ft 477 kts 42°
2026-05-08 07:31 45.21738 13.69029 37066 ft 477 kts 42°
2026-05-08 07:32 45.26568 13.75509 37069 ft 477 kts 42°
2026-05-08 07:32 45.31388 13.81989 37075 ft 478 kts 42°
2026-05-08 07:33 45.36205 13.88502 37079 ft 478 kts 42°
2026-05-08 07:33 45.41015 13.95020 37076 ft 478 kts 42°
2026-05-08 07:34 45.45829 14.01554 37077 ft 478 kts 42°
2026-05-08 07:34 45.50638 14.08089 37074 ft 478 kts 42°
2026-05-08 07:35 45.55453 14.14640 37076 ft 478 kts 42°
2026-05-08 07:35 45.60256 14.21203 37083 ft 478 kts 42°
2026-05-08 07:36 45.65029 14.27738 37087 ft 478 kts 42°
2026-05-08 07:36 45.69866 14.34370 37090 ft 478 kts 42°
2026-05-08 07:37 45.74626 14.40927 37096 ft 478 kts 42°
2026-05-08 07:37 45.79404 14.47538 37098 ft 478 kts 42°
2026-05-08 07:38 45.84187 14.54150 37099 ft 478 kts 42°
2026-05-08 07:38 45.88975 14.60788 37106 ft 478 kts 42°
2026-05-08 07:39 45.93752 14.67428 37108 ft 478 kts 42°
2026-05-08 07:39 45.98524 14.74083 37114 ft 478 kts 42°
2026-05-08 07:40 46.03295 14.80746 37118 ft 478 kts 42°
2026-05-08 07:40 46.08057 14.87415 37118 ft 477 kts 42°
2026-05-08 07:41 46.12806 14.94096 37116 ft 477 kts 42°
2026-05-08 07:41 46.17547 15.00773 37112 ft 477 kts 42°
2026-05-08 07:42 46.22291 15.07463 37115 ft 476 kts 42°
2026-05-08 07:42 46.27021 15.14161 37118 ft 476 kts 42°
2026-05-08 07:43 46.31736 15.20862 37107 ft 476 kts 42°
2026-05-08 07:43 46.36458 15.27581 37077 ft 476 kts 42°
2026-05-08 07:43 46.38822 15.30948 36806 ft 476 kts 42°
2026-05-08 07:44 46.41188 15.34320 36377 ft 476 kts 41°
2026-05-08 07:44 46.43547 15.37689 35313 ft 479 kts 41°
2026-05-08 07:44 46.45913 15.41083 34754 ft 476 kts 40°
2026-05-08 07:44 46.48267 15.44469 34122 ft 476 kts 40°
2026-05-08 07:45 46.50617 15.47844 33433 ft 475 kts 39°
2026-05-08 07:45 46.53121 15.50908 32854 ft 465 kts 30°
2026-05-08 07:45 46.55835 15.53341 32306 ft 454 kts 20°
2026-05-08 07:45 46.58691 15.55198 31767 ft 446 kts 16°
2026-05-08 07:46 46.61544 15.56927 31235 ft 443 kts 16°
2026-05-08 07:46 46.64381 15.58655 30692 ft 440 kts 16°
2026-05-08 07:46 46.67189 15.60370 30172 ft 437 kts 16°
2026-05-08 07:46 46.69985 15.62081 29610 ft 432 kts 16°
2026-05-08 07:47 46.72738 15.63769 29108 ft 427 kts 17°
2026-05-08 07:47 46.75460 15.65441 28624 ft 423 kts 17°
2026-05-08 07:47 46.77255 15.66542 28299 ft 420 kts 17°
2026-05-08 07:47 46.79935 15.68185 27826 ft 416 kts 17°
2026-05-08 07:48 46.82587 15.69816 27359 ft 412 kts 17°
2026-05-08 07:48 46.85211 15.71433 26909 ft 408 kts 17°
2026-05-08 07:48 46.88654 15.73562 26324 ft 402 kts 18°
2026-05-08 07:48 46.91218 15.75147 25866 ft 399 kts 18°
2026-05-08 07:49 46.93767 15.76721 25415 ft 396 kts 18°
2026-05-08 07:49 46.95473 15.77775 25113 ft 394 kts 18°
2026-05-08 07:49 46.97990 15.79327 24641 ft 391 kts 18°
2026-05-08 07:49 47.00489 15.80869 24177 ft 389 kts 18°
2026-05-08 07:50 47.02967 15.82402 23690 ft 387 kts 19°
2026-05-08 07:50 47.05451 15.83942 23154 ft 385 kts 19°
2026-05-08 07:50 47.07898 15.85463 22675 ft 381 kts 19°
2026-05-08 07:50 47.10331 15.86977 22192 ft 378 kts 19°
2026-05-08 07:51 47.12737 15.88477 21720 ft 375 kts 20°
2026-05-08 07:51 47.15129 15.89968 21247 ft 372 kts 20°
2026-05-08 07:51 47.17510 15.91453 20779 ft 370 kts 20°
2026-05-08 07:51 47.19875 15.92933 20308 ft 369 kts 20°
2026-05-08 07:52 47.22224 15.94402 19845 ft 367 kts 20°
2026-05-08 07:52 47.24576 15.95874 19383 ft 366 kts 21°
2026-05-08 07:52 47.26904 15.97331 18912 ft 364 kts 21°
2026-05-08 07:52 47.29243 15.98795 18464 ft 363 kts 21°
2026-05-08 07:53 47.31565 16.00252 17965 ft 362 kts 21°
2026-05-08 07:53 47.33868 16.01701 17516 ft 359 kts 21°
2026-05-08 07:53 47.36154 16.03163 17067 ft 357 kts 24°
2026-05-08 07:53 47.38271 16.05091 16611 ft 358 kts 35°
2026-05-08 07:54 47.40256 16.07289 16156 ft 356 kts 36°
2026-05-08 07:54 47.42235 16.09480 15711 ft 355 kts 35°
2026-05-08 07:54 47.44201 16.11654 15259 ft 353 kts 35°
2026-05-08 07:54 47.46143 16.13799 14826 ft 352 kts 35°
2026-05-08 07:55 47.48111 16.15973 14379 ft 351 kts 35°
2026-05-08 07:55 47.50051 16.18118 13929 ft 350 kts 35°
2026-05-08 07:55 47.51987 16.20259 13448 ft 348 kts 35°
2026-05-08 07:55 47.53913 16.22392 12990 ft 337 kts 35°
2026-05-08 07:56 47.55749 16.24424 12561 ft 322 kts 35°
2026-05-08 07:56 47.57513 16.26381 12140 ft 315 kts 35°
2026-05-08 07:56 47.59266 16.28327 11712 ft 315 kts 35°
2026-05-08 07:56 47.61032 16.30291 11196 ft 319 kts 35°
2026-05-08 07:57 47.62807 16.32264 10741 ft 318 kts 35°
2026-05-08 07:57 47.64573 16.34231 10308 ft 317 kts 35°
2026-05-08 07:57 47.66301 16.36163 9918 ft 302 kts 35°
2026-05-08 07:57 47.67941 16.37998 9435 ft 291 kts 35°
2026-05-08 07:58 47.69564 16.39810 9259 ft 292 kts 35°
2026-05-08 07:58 47.71192 16.41627 8791 ft 292 kts 35°
2026-05-08 07:58 47.72804 16.43427 8345 ft 291 kts 35°
2026-05-08 07:58 47.74413 16.45226 7870 ft 284 kts 35°
2026-05-08 07:59 47.75991 16.46992 7196 ft 281 kts 35°
2026-05-08 07:59 47.77544 16.48731 6684 ft 282 kts 35°
2026-05-08 07:59 47.79113 16.50489 6237 ft 280 kts 35°
2026-05-08 07:59 47.80666 16.52235 5660 ft 282 kts 35°
2026-05-08 08:00 47.82208 16.53970 5125 ft 272 kts 34°
2026-05-08 08:00 47.83689 16.55638 4641 ft 261 kts 34°
2026-05-08 08:00 47.85091 16.57221 4384 ft 242 kts 34°
2026-05-08 08:00 47.86366 16.58666 4324 ft 220 kts 34°
2026-05-08 08:01 47.87545 16.59999 4255 ft 206 kts 33°
2026-05-08 08:01 47.88660 16.61257 4195 ft 199 kts 34°
2026-05-08 08:01 47.89739 16.62475 4107 ft 190 kts 33°
2026-05-08 08:01 47.90801 16.63670 4028 ft 194 kts 33°
2026-05-08 08:02 47.91901 16.64820 3918 ft 193 kts 24°
2026-05-08 08:02 47.93167 16.65388 3762 ft 189 kts
2026-05-08 08:02 47.94467 16.65198 3539 ft 188 kts 342°
2026-05-08 08:02 47.95722 16.64667 3310 ft 188 kts 343°
2026-05-08 08:03 47.96964 16.64146 3079 ft 183 kts 343°
2026-05-08 08:03 47.98181 16.63635 2812 ft 179 kts 344°
2026-05-08 08:03 47.99394 16.63125 2549 ft 181 kts 343°
2026-05-08 08:03 48.00550 16.62639 2318 ft 164 kts 343°
2026-05-08 08:04 48.01581 16.62205 2143 ft 146 kts 344°
2026-05-08 08:04 48.02530 16.61806 1932 ft 136 kts 343°
2026-05-08 08:04 48.03413 16.61434 1756 ft 130 kts 343°
2026-05-08 08:04 48.04273 16.61076 1585 ft 127 kts 343°
2026-05-08 08:05 48.05117 16.60733 1394 ft 126 kts 344°
2026-05-08 08:05 48.05957 16.60373 1211 ft 126 kts 342°
2026-05-08 08:05 48.06803 16.60013 1061 ft 126 kts 341°
2026-05-08 08:05 48.07648 16.59655 890 ft 124 kts 342°
2026-05-08 08:06 48.08479 16.59298 732 ft 126 kts 343°
2026-05-08 08:06 48.09303 16.58949 622 ft 117 kts 341°
2026-05-08 08:06 48.09948 16.58676 614 ft 78 kts 345°
2026-05-08 08:06 48.10410 16.58482 619 ft 55 kts 343°
2026-05-08 08:07 48.10690 16.58322 618 ft 33 kts 327°
2026-05-08 08:07 48.10824 16.58137 623 ft 23 kts 314°
2026-05-08 08:07 48.10938 16.57985 610 ft 21 kts 340°
2026-05-08 08:07 48.11079 16.57914 616 ft 22 kts 331°
2026-05-08 08:08 48.11157 16.57716 621 ft 23 kts 296°
2026-05-08 08:08 48.11231 16.57491 617 ft 25 kts 296°
2026-05-08 08:08 48.11309 16.57249 613 ft 27 kts 296°
2026-05-08 08:08 48.11391 16.56997 619 ft 24 kts 295°
2026-05-08 08:09 48.11459 16.56877 616 ft 15 kts 353°
2026-05-08 08:09 48.11563 16.56912 610 ft 15 kts 343°
2026-05-08 08:09 48.11629 16.56763 612 ft 21 kts 296°
2026-05-08 08:09 48.11683 16.56639 618 ft 6 kts
2026-05-08 08:10 48.11729 16.56670 612 ft 7 kts 25°
2026-05-08 08:10 48.11744 16.56682 610 ft 0 kts 25°